W5IM Weather Reports


Display with metric or nautical units.
time (UTC)temp
F
wind
direction
speed
MPH
gust
MPH
rain 1hr
in
rain 24hr
in
rain mn
in
humidity
%
barometer
mb
20260906024506 84 151 10.0 14.0 0.00 0.00 0.00 79 1011.1
20260906024008 84 148 9.0 13.0 0.00 0.00 0.00 80 1011.0
20260906023008 84 141 10.0 13.0 0.00 0.00 0.00 78 1010.7
20260906022506 84 151 9.0 15.0 0.00 0.00 0.00 78 1010.7
20260906022007 84 144 10.0 16.0 0.00 0.00 0.00 78 1010.7
20260906021507 85 145 9.0 14.0 0.00 0.00 0.00 77 1010.7
20260906021007 85 143 10.0 16.0 0.00 0.00 0.00 76 1010.7
20260906020007 85 154 13.0 20.0 0.00 0.00 0.00 76 1010.6
20260906015506 84 157 12.0 16.0 0.00 0.00 0.00 74 1010.6
20260906015008 85 150 12.0 17.0 0.00 0.00 0.00 73 1010.6
20260906014507 85 153 9.0 16.0 0.00 0.00 0.00 72 1010.6
20260906013507 85 153 11.0 15.0 0.00 0.00 0.00 69 1010.6
20260906013007 86 156 7.0 13.0 0.00 0.00 0.00 68 1010.6
20260906012507 86 153 9.0 14.0 0.00 0.00 0.00 67 1010.5
20260906012007 86 152 10.0 15.0 0.00 0.00 0.00 67 1010.3
20260906011507 87 153 8.0 14.0 0.00 0.00 0.00 65 1010.3
20260906011008 87 149 12.0 15.0 0.00 0.00 0.00 64 1010.3
20260906010507 87 154 9.0 17.0 0.00 0.00 0.00 62 1010.2
20260906010007 87 159 10.0 15.0 0.00 0.00 0.00 62 1010.2
20260906005507 87 155 10.0 16.0 0.00 0.00 0.00 60 1010.1
20260906005007 87 147 13.0 17.0 0.00 0.00 0.00 60 1009.9
20260906004507 87 142 13.0 17.0 0.00 0.00 0.00 60 1009.8
20260906004007 88 143 13.0 18.0 0.00 0.00 0.00 57 1009.8
20260906003506 88 146 13.0 16.0 0.00 0.00 0.00 57 1009.7
20260906003007 88 140 14.0 18.0 0.00 0.00 0.00 56 1009.7
20260906002506 89 144 13.0 18.0 0.00 0.00 0.00 57 1009.7
20260906002007 89 131 14.0 21.0 0.00 0.00 0.00 55 1009.7
20260906001507 89 132 13.0 21.0 0.00 0.00 0.00 54 1009.6
20260906001007 90 138 13.0 17.0 0.00 0.00 0.00 54 1009.6
20260906000507 90 138 13.0 16.0 0.00 0.00 0.00 53 1009.5
20260906000006 90 144 13.0 21.0 0.00 0.00 0.00 52 1009.6
20260905235007 90 137 13.0 17.0 0.00 0.00 0.00 53 1009.6
20260905234507 90 131 14.0 21.0 0.00 0.00 0.00 54 1009.5
20260905234007 91 130 15.0 20.0 0.00 0.00 0.00 53 1009.4
20260905233008 91 135 16.0 20.0 0.00 0.00 0.00 51 1009.4
20260905232506 91 141 16.0 21.0 0.00 0.00 0.00 52 1009.4
20260905232007 92 140 16.0 22.0 0.00 0.00 0.00 49 1009.3
20260905231507 92 131 12.0 18.0 0.00 0.00 0.00 49 1009.3
20260905231007 92 144 14.0 20.0 0.00 0.00 0.00 50 1009.1
20260905230506 93 142 12.0 20.0 0.00 0.00 0.00 48 1009.0
20260905230007 93 136 14.0 21.0 0.00 0.00 0.00 47 1008.9
20260905225507 93 128 15.0 22.0 0.00 0.00 0.00 48 1008.9
20260905225007 93 125 13.0 20.0 0.00 0.00 0.00 47 1008.8
20260905224506 94 123 14.0 20.0 0.00 0.00 0.00 46 1008.8
20260905224007 93 140 13.0 21.0 0.00 0.00 0.00 47 1008.9
20260905223007 94 142 15.0 22.0 0.00 0.00 0.00 46 1008.9
20260905222507 94 145 14.0 18.0 0.00 0.00 0.00 45 1009.0
20260905222007 95 131 13.0 20.0 0.00 0.00 0.00 44 1009.0
20260905221507 96 132 13.0 20.0 0.00 0.00 0.00 42 1009.0
20260905220507 96 133 14.0 20.0 0.00 0.00 0.00 42 1008.9
20260905220007 96 138 12.0 17.0 0.00 0.00 0.00 43 1008.8
20260905214008 95 123 10.0 15.0 0.00 0.00 0.00 46 1008.8
20260905213506 94 132 11.0 15.0 0.00 0.00 0.00 47 1008.9
20260905213007 94 162 8.0 14.0 0.00 0.00 0.00 48 1008.9
20260905212507 94 146 11.0 16.0 0.00 0.00 0.00 47 1009.0
20260905212007 95 156 11.0 16.0 0.00 0.00 0.00 47 1008.9
20260905211506 96 115 11.0 17.0 0.00 0.00 0.00 44 1008.9
20260905211007 96 136 11.0 18.0 0.00 0.00 0.00 45 1008.9
20260905210506 96 144 10.0 18.0 0.00 0.00 0.00 45 1009.0
20260905210006 97 153 9.0 14.0 0.00 0.00 0.00 44 1009.0
20260905205507 97 135 10.0 16.0 0.00 0.00 0.00 43 1009.1
20260905205007 97 124 12.0 20.0 0.00 0.00 0.00 43 1009.1
20260905204506 97 122 11.0 16.0 0.00 0.00 0.00 44 1009.2
20260905204006 96 161 8.0 14.0 0.00 0.00 0.00 45 1009.3
20260905203506 95 153 10.0 16.0 0.00 0.00 0.00 47 1009.5
20260905203007 95 142 10.0 16.0 0.00 0.00 0.00 47 1009.7
20260905202507 95 137 9.0 12.0 0.00 0.00 0.00 46 1009.7
20260905202008 95 141 12.0 17.0 0.00 0.00 0.00 46 1009.8
20260905201506 95 120 10.0 16.0 0.00 0.00 0.00 45 1009.8
20260905201007 95 123 10.0 15.0 0.00 0.00 0.00 44 1009.9
20260905200507 95 140 6.0 12.0 0.00 0.00 0.00 44 1009.9
20260905200006 95 127 8.0 14.0 0.00 0.00 0.00 44 1009.9
20260905195506 95 153 9.0 12.0 0.00 0.00 0.00 46 1010.1
20260905194507 96 112 10.0 15.0 0.00 0.00 0.00 43 1010.2
20260905194007 96 130 9.0 13.0 0.00 0.00 0.00 43 1010.2
20260905193507 96 90 7.0 13.0 0.00 0.00 0.00 43 1010.4
20260905193007 96 135 6.0 14.0 0.00 0.00 0.00 44 1010.5
20260905192506 96 166 5.0 10.0 0.00 0.00 0.00 41 1010.6
20260905192007 96 121 7.0 17.0 0.00 0.00 0.00 42 1010.7
20260905191506 96 229 7.0 12.0 0.00 0.00 0.00 42 1010.8
20260905191007 96 160 7.0 13.0 0.00 0.00 0.00 44 1010.8
20260905190006 96 139 8.0 14.0 0.00 0.00 0.00 44 1010.8
20260905185507 96 153 5.0 14.0 0.00 0.00 0.00 44 1010.9
20260905185007 96 197 9.0 15.0 0.00 0.00 0.00 41 1011.0
20260905184007 94 110 9.0 15.0 0.00 0.00 0.00 46 1011.1
20260905183506 94 160 6.0 9.0 0.00 0.00 0.00 47 1011.3
20260905183007 94 127 5.0 13.0 0.00 0.00 0.00 48 1011.4
20260905182506 95 146 8.0 13.0 0.00 0.00 0.00 47 1011.4
20260905182006 94 164 4.0 10.0 0.00 0.00 0.00 46 1011.5
20260905181007 94 218 5.0 13.0 0.00 0.00 0.00 45 1011.6
20260905180506 94 167 5.0 13.0 0.00 0.00 0.00 47 1011.8
20260905175506 93 133 6.0 13.0 0.00 0.00 0.00 49 1012.0
20260905175007 93 144 6.0 9.0 0.00 0.00 0.00 50 1012.2
20260905174007 90 171 6.0 9.0 0.00 0.00 0.00 52 1012.4
20260905173506 89 189 8.0 12.0 0.00 0.00 0.00 50 1012.4
20260905173006 89 162 4.0 8.0 0.00 0.00 0.00 52 1012.4
20260905172506 90 166 9.0 12.0 0.00 0.00 0.00 51 1012.4
20260905172006 91 188 7.0 12.0 0.00 0.00 0.00 50 1012.5
20260905171506 91 118 7.0 12.0 0.00 0.00 0.00 51 1012.5
20260905171007 92 170 10.0 15.0 0.00 0.00 0.00 52 1012.6
20260905170506 91 145 7.0 13.0 0.00 0.00 0.00 54 1012.6
20260905170007 91 176 3.0 13.0 0.00 0.00 0.00 56 1012.7
20260905165506 91 153 3.0 9.0 0.00 0.00 0.00 57 1012.8
20260905165007 90 197 7.0 10.0 0.00 0.00 0.00 56 1012.8
20260905164506 90 175 7.0 12.0 0.00 0.00 0.00 57 1012.8
20260905163007 89 165 5.0 14.0 0.00 0.00 0.00 63 1013.0
20260905161507 89 136 5.0 8.0 0.00 0.00 0.00 62 1013.0
20260905161008 89 170 8.0 12.0 0.00 0.00 0.00 63 1013.0
20260905160507 89 143 9.0 13.0 0.00 0.00 0.00 62 1013.0
20260905160008 90 166 6.0 8.0 0.00 0.00 0.00 64 1013.0
20260905155508 90 148 6.0 12.0 0.00 0.00 0.00 64 1013.1
20260905155008 89 174 6.0 10.0 0.00 0.00 0.00 65 1013.1
20260905154507 89 163 7.0 12.0 0.00 0.00 0.00 66 1013.1
20260905154008 88 167 5.0 9.0 0.00 0.00 0.00 69 1013.0
20260905153507 88 183 6.0 10.0 0.00 0.00 0.00 69 1013.0
20260905152507 87 189 6.0 9.0 0.00 0.00 0.00 72 1013.1
20260905152008 87 159 6.0 9.0 0.00 0.00 0.00 73 1013.1
20260905151507 87 210 7.0 13.0 0.00 0.00 0.00 72 1013.0
20260905151008 86 192 7.0 13.0 0.00 0.00 0.00 73 1013.0
20260905150508 85 184 6.0 9.0 0.00 0.00 0.00 74 1013.1
20260905145509 86 167 5.0 8.0 0.00 0.00 0.00 75 1013.0
20260905145008 86 178 6.0 10.0 0.00 0.00 0.00 75 1013.0
20260905144508 86 149 7.0 14.0 0.00 0.00 0.00 76 1013.0
20260905144008 85 180 6.0 9.0 0.00 0.00 0.00 76 1012.9
20260905143507 85 162 3.0 9.0 0.00 0.00 0.00 77 1012.8
20260905142508 85 172 5.0 8.0 0.00 0.00 0.00 78 1012.8
20260905141507 85 173 5.0 9.0 0.00 0.00 0.00 80 1012.8
20260905141012 85 161 4.0 9.0 0.00 0.00 0.00 81 1012.7
20260905135507 85 161 3.0 8.0 0.00 0.00 0.00 82 1012.4
20260905135008 84 148 6.0 8.0 0.00 0.00 0.00 82 1012.5
20260905134507 84 152 5.0 7.0 0.00 0.00 0.00 82 1012.5
20260905134008 84 144 5.0 7.0 0.00 0.00 0.00 83 1012.4
20260905133508 84 157 3.0 7.0 0.00 0.00 0.00 84 1012.3
20260905132507 83 163 5.0 7.0 0.00 0.00 0.00 86 1012.1
20260905132008 83 154 5.0 7.0 0.00 0.00 0.00 86 1012.1
20260905131008 83 147 5.0 6.0 0.00 0.00 0.00 86 1011.9
20260905130507 82 145 5.0 7.0 0.00 0.00 0.00 86 1011.9
20260905130008 82 137 5.0 7.0 0.00 0.00 0.00 87 1011.9
20260905125509 82 138 5.0 6.0 0.00 0.00 0.00 87 1011.9
20260905125008 82 148 3.0 5.0 0.00 0.00 0.00 87 1011.9
20260905124508 82 143 3.0 5.0 0.00 0.00 0.00 87 1011.9
20260905124008 82 136 3.0 5.0 0.00 0.00 0.00 87 1011.8
20260905123508 82 141 3.0 6.0 0.00 0.00 0.00 87 1011.7
20260905123008 82 147 3.0 5.0 0.00 0.00 0.00 87 1011.6
20260905122507 82 153 3.0 6.0 0.00 0.00 0.00 87 1011.6
20260905122007 82 151 3.0 5.0 0.00 0.00 0.00 87 1011.6
20260905121507 82 153 4.0 6.0 0.00 0.00 0.00 87 1011.7
20260905121008 82 140 3.0 6.0 0.00 0.00 0.00 87 1011.7
20260905120007 82 163 2.0 5.0 0.00 0.00 0.00 87 1011.5
20260905115508 82 158 4.0 7.0 0.00 0.00 0.00 86 1011.4
20260905115008 82 167 3.0 7.0 0.00 0.00 0.00 86 1011.4
20260905114507 83 164 4.0 6.0 0.00 0.00 0.00 2 1011.4
20260905113507 83 156 6.0 7.0 0.00 0.00 0.00 86 1011.4
20260905112507 82 160 5.0 8.0 0.00 0.00 0.00 87 1011.3
20260905112008 82 154 6.0 10.0 0.00 0.00 0.00 86 1011.3
20260905111507 82 152 6.0 10.0 0.00 0.00 0.00 86 1011.3
20260905111007 82 157 7.0 9.0 0.00 0.00 0.00 86 1011.3
20260905110507 82 152 6.0 9.0 0.00 0.00 0.00 86 1011.3
20260905110007 82 167 3.0 8.0 0.00 0.00 0.00 86 1011.3
20260905105508 82 172 5.0 8.0 0.00 0.00 0.00 86 1011.4
20260905105007 82 166 5.0 8.0 0.00 0.00 0.00 86 1011.3
20260905104507 82 171 6.0 10.0 0.00 0.00 0.00 86 1011.3
20260905104008 82 170 3.0 6.0 0.00 0.00 0.00 86 1011.3
20260905103507 82 188 4.0 7.0 0.00 0.00 0.00 86 1011.1
20260905103008 82 180 4.0 8.0 0.00 0.00 0.00 86 1011.1
20260905102507 82 161 5.0 8.0 0.00 0.00 0.00 86 1011.1
20260905102008 82 158 5.0 8.0 0.00 0.00 0.00 86 1011.1
20260905101507 82 169 6.0 9.0 0.00 0.00 0.00 86 1011.3
20260905101007 83 162 6.0 8.0 0.00 0.00 0.00 86 1011.3
20260905100507 83 166 5.0 8.0 0.00 0.00 0.00 86 1011.1
20260905100008 82 169 5.0 8.0 0.00 0.00 0.00 86 1011.1
20260905095507 83 162 6.0 8.0 0.00 0.00 0.00 86 1011.3
20260905095007 83 158 6.0 8.0 0.00 0.00 0.00 86 1011.3
20260905094507 83 170 5.0 7.0 0.00 0.00 0.00 85 1011.1
20260905094008 83 170 3.0 7.0 0.00 0.00 0.00 85 1011.1
20260905093507 83 187 2.0 6.0 0.00 0.00 0.00 85 1011.1
20260905093008 83 172 4.0 7.0 0.00 0.00 0.00 85 1011.3
20260905092008 83 160 5.0 8.0 0.00 0.00 0.00 85 1011.5
20260905091007 83 166 5.0 7.0 0.00 0.00 0.00 84 1011.5
20260905090507 83 168 5.0 7.0 0.00 0.00 0.00 84 1011.5
20260905085507 83 179 5.0 9.0 0.00 0.00 0.00 84 1011.4
20260905085009 83 166 5.0 10.0 0.00 0.00 0.00 84 1011.3
20260905084507 83 174 4.0 7.0 0.00 0.00 0.00 83 1011.3
20260905084008 83 173 4.0 6.0 0.00 0.00 0.00 83 1011.3
20260905083507 83 197 4.0 8.0 0.00 0.00 0.00 83 1011.3
20260905083007 83 177 5.0 9.0 0.00 0.00 0.00 83 1011.3
20260905082507 83 170 5.0 9.0 0.00 0.00 0.00 83 1011.4
20260905081507 83 177 5.0 8.0 0.00 0.00 0.00 82 1011.6
20260905081008 83 174 5.0 8.0 0.00 0.00 0.00 82 1011.5
20260905080507 83 174 5.0 8.0 0.00 0.00 0.00 82 1011.5
20260905075508 83 175 5.0 8.0 0.00 0.00 0.00 82 1011.5
20260905075007 83 174 5.0 7.0 0.00 0.00 0.00 81 1011.6
20260905074506 83 171 5.0 8.0 0.00 0.00 0.00 81 1011.7
20260905074008 83 173 5.0 8.0 0.00 0.00 0.00 81 1011.7
20260905073507 83 170 4.0 8.0 0.00 0.00 0.00 81 1011.7
20260905073008 83 179 3.0 6.0 0.00 0.00 0.00 81 1011.9
20260905072507 83 165 4.0 8.0 0.00 0.00 0.00 81 1011.9
20260905072008 83 172 3.0 6.0 0.00 0.00 0.00 80 1012.0
20260905071507 83 178 5.0 8.0 0.00 0.00 0.00 80 1012.0
20260905071008 83 164 5.0 7.0 0.00 0.00 0.00 80 1012.0
20260905070507 83 166 4.0 9.0 0.00 0.00 0.00 80 1011.9
20260905065507 83 154 6.0 7.0 0.00 0.00 0.00 80 1012.0
20260905065007 83 154 5.0 9.0 0.00 0.00 0.00 80 1011.9
20260905064507 84 166 5.0 7.0 0.00 0.00 0.00 80 1011.9
20260905064007 83 151 6.0 9.0 0.00 0.00 0.00 80 1011.9
20260905063507 83 154 7.0 9.0 0.00 0.00 0.00 80 1011.9
20260905063008 83 152 7.0 8.0 0.00 0.00 0.00 81 1011.8
20260905062507 83 168 6.0 9.0 0.00 0.00 0.00 81 1011.9
20260905062007 83 167 7.0 9.0 0.00 0.00 0.00 81 1011.9
20260905061507 83 158 6.0 9.0 0.00 0.00 0.00 81 1011.9
20260905061008 83 163 5.0 9.0 0.00 0.00 0.00 81 1012.0
20260905060507 83 172 4.0 9.0 0.00 0.00 0.00 81 1012.0
20260905060007 83 154 8.0 12.0 0.00 0.00 0.00 82 1011.9
20260905055508 83 161 6.0 10.0 0.00 0.00 0.00 82 1012.0
20260905055007 83 162 7.0 10.0 0.00 0.00 0.00 82 1012.0
20260905054507 83 164 6.0 9.0 0.00 0.00 0.00 81 1012.0
20260905054007 83 169 5.0 9.0 0.00 0.00 0.00 82 1012.0
20260905053507 83 168 5.0 9.0 0.00 0.00 0.00 82 1012.1
20260905052507 83 156 7.0 9.0 0.00 0.00 0.00 82 1012.2
20260905052007 83 160 7.0 9.0 0.00 0.00 0.00 81 1012.2
20260905051507 83 164 6.0 9.0 0.00 0.00 0.00 81 1012.2
20260905051007 83 176 5.0 9.0 0.00 0.00 0.00 81 1012.1
20260905050508 83 196 5.0 9.0 0.00 0.00 0.00 81 1012.2
20260905050007 83 167 6.0 8.0 0.00 0.00 0.00 81 1012.2
20260905045507 83 180 5.0 8.0 0.00 0.00 0.00 81 1012.3
20260905044507 84 168 6.0 10.0 0.00 0.00 0.00 80 1012.2
20260905044008 84 166 7.0 12.0 0.00 0.00 0.00 80 1012.3
20260905043507 84 172 7.0 12.0 0.00 0.00 0.00 81 1012.4
20260905042507 84 174 6.0 12.0 0.00 0.00 0.00 80 1012.5
20260905041007 84 176 6.0 10.0 0.00 0.00 0.00 80 1012.5
20260905040510 84 158 7.0 12.0 0.00 0.00 0.00 80 1012.7
20260905040006 84 174 5.0 8.0 0.00 0.00 0.00 78 1012.7
20260905035507 84 172 3.0 12.0 0.00 0.00 0.00 78 1012.7
20260905035007 84 158 5.0 12.0 0.00 0.00 0.00 78 1012.6
20260905034007 84 163 6.0 10.0 0.00 0.00 0.00 78 1012.6
20260905033007 84 171 7.0 12.0 0.00 0.00 0.00 77 1012.5
20260905032507 85 161 7.0 10.0 0.00 0.00 0.00 76 1012.4
20260905032007 85 172 4.0 8.0 0.00 0.00 0.00 75 1012.4
20260905031507 85 166 6.0 10.0 0.00 0.00 0.00 75 1012.3
20260905031007 85 167 7.0 13.0 0.00 0.00 0.00 75 1012.3
20260905030507 85 171 6.0 12.0 0.00 0.00 0.00 75 1012.2
20260905030007 85 159 8.0 13.0 0.00 0.00 0.00 75 1012.1
20260905025507 85 160 7.0 14.0 0.00 0.00 0.00 76 1012.1
20260905025007 85 161 8.0 15.0 0.00 0.00 0.00 76 1012.0